Regional Weather Roundup
Issued by NWS Bismarck, ND

Home | Current Version | Previous Version | Text Only | Print | Product List | Glossary On
Versions: 1 2 3 4 5 6 7 8 9 10 11 12 13 14 15 16 17 18 19 20 21 22 23 24 25 26 27 28 29 30 31 32 33 34 35 36 37 38 39 40 41 42 43 44 45 46 47 48 49 50
000
ASUS43 KBIS 170602
RWRBIS

NWR BROADCAST TEXT
NATIONAL WEATHER SERVICE BISMARCK ND
100 AM CDT TUE OCT 17 2017

NOTE: "FAIR" INDICATES FEW OR NO CLOUDS BELOW 12,000 FEET WITH NO
SIGNIFICANT WEATHER AND/OR OBSTRUCTIONS TO VISIBILITY.


CITY           SKY/WX    TMP DP  RH WIND       PRES   REMARKS
WILLISTON      CLEAR     43  32  65 SW6       29.90F
MINOT          CLOUDY    47  33  58 S8        29.88F
MINOT AFB      CLOUDY    46  32  59 SW8       29.86F
BISMARCK       CLOUDY    40  32  73 CALM      29.98F
DICKINSON      CLEAR     41  30  65 S7        29.97F
GARRISON         N/A     43  39  86 SW3       29.93F
HETTINGER ARPT CLEAR     32  24  72 CALM      30.04S
JAMESTOWN      CLOUDY    45  33  63 SW5       29.93S
CARRINGTON     FAIR      39  32  75 W10       29.95S
HAZEN          FAIR      34  30  86 CALM      29.97F
LINTON           N/A     36  25  64 CALM      30.01S
RUGBY          FAIR      41  34  75 S6        29.90S
STANLEY        FAIR      43  32  65 SW7       29.92F
TIOGA          FAIR      45  32  61 SW13      29.90F
WATFORD CITY   FAIR      37  32  81 SW3       29.92F
$$

CITY           SKY/WX    TMP DP  RH WIND       PRES   REMARKS
GRAND FORKS    CLEAR     45  35  68 CALM      29.89S
GRAND FORKS AF CLEAR     41  33  74 SW5       29.89S
DEVILS LAKE    CLOUDY    41  36  82 CALM      29.91F
FARGO          CLOUDY    43  37  79 S3        29.92S
CANDO          FAIR      36  36 100 SW7       29.92S
CAVALIER       FAIR      48  36  61 W9        29.87S
GRAFTON        FAIR      43  34  70 SW7       29.90S
GWINNER          N/A     43  37  81 W9        29.95S
LANGDON        FAIR      36  30  80 S8        29.90F
ROLLA          FAIR      48  32  53 CALM      29.89F
WALHALLA       FAIR     N/A N/A N/A W5        29.87S
$$

CITY           SKY/WX    TMP DP  RH WIND       PRES   REMARKS
ABERDEEN       CLEAR     37  34  89 SW5       29.98S
MOBRIDGE       CLEAR     41  33  73 CALM      29.98S
BUFFALO          N/A     45  27  49 W8        29.98F
RAPID CITY     CLEAR     45  29  53 NW8       30.10S
GLASGOW        CLEAR     49  27  42 S6        29.87F
SIDNEY         CLEAR     42  32  67 S9        29.92F
WOLF POINT     CLEAR     35  28  75 NW3       29.89F
GLENDIVE       CLEAR     45  30  55 S10       29.96F
MILES CITY     CLEAR     48  31  51 S6        30.00F
BAKER          CLEAR     40  31  70 CALM      30.02F
$$

CITY           SKY/WX    TMP DP  RH WIND       PRES   REMARKS
BILLINGS       CLEAR     59  25  27 W14       30.08R
GREAT FALLS    CLEAR     56  23  27 SW21      30.00F
$$





USA.gov is the U.S. government's official web portal to all federal, state and local government web resources and services.